CW7783 Weather Reports


time (UTC)temp
F
wind
direction
speed
knots
gust
knots
rain 1hr
in
rain 24hr
in
rain mn
in
humidity
%
barometer
mb
20260507223721 53 355 0.0 0.0 0.00 0.04 0.00 88 1014.8
20260507223234 53 355 0.0 0.0 0.00 0.04 0.00 88 1014.8
20260507222747 53 355 0.0 0.0 0.00 0.04 0.00 87 1014.8
20260507222230 53 355 0.0 0.0 0.00 0.04 0.00 87 1014.7
20260507221720 53 355 0.0 0.0 0.00 0.04 0.00 87 1014.8
20260507221253 53 355 0.0 0.0 0.00 0.04 0.00 87 1014.8
20260507220721 54 355 0.0 0.0 0.00 0.04 0.00 87 1014.6
20260507220255 54 355 0.0 0.0 0.00 0.04 0.00 87 1014.6
20260507215747 54 355 0.0 0.0 0.00 0.04 0.01 87 1014.6
20260507215232 54 338 0.0 0.0 0.00 0.04 0.01 87 1014.6
20260507214726 54 324 0.0 0.0 0.00 0.04 0.01 87 1014.6
20260507214240 54 324 0.0 0.0 0.00 0.04 0.01 87 1014.6
20260507213724 54 324 0.0 0.0 0.00 0.04 0.01 87 1014.5
20260507213322 54 324 0.0 0.0 0.00 0.04 0.01 87 1014.5
20260507213240 54 324 0.0 0.0 0.00 0.04 0.01 87 1014.5
20260507212724 54 324 0.0 0.0 0.00 0.04 0.01 87 1014.5
20260507212258 54 325 0.0 0.0 0.00 0.04 0.01 87 1014.4
20260507211729 54 318 0.0 0.0 0.00 0.04 0.01 86 1014.4
20260507211243 54 281 0.0 0.0 0.00 0.04 0.01 86 1014.5
20260507210722 54 310 0.0 0.0 0.00 0.04 0.01 86 1014.4
20260507210235 55 323 0.0 0.0 0.00 0.04 0.01 86 1014.5
20260507205725 55 315 0.0 2.6 0.00 0.04 0.01 86 1014.5
20260507205237 55 242 0.0 2.6 0.00 0.04 0.01 85 1014.4
20260507204742 55 331 0.0 0.9 0.00 0.04 0.01 85 1014.4
20260507204251 55 331 0.0 1.7 0.00 0.04 0.01 84 1014.2
20260507203738 55 331 0.9 1.7 0.00 0.04 0.01 83 1014.2
20260507203247 55 307 0.0 0.0 0.00 0.04 0.01 83 1014.3
20260507202728 56 307 0.0 0.0 0.00 0.04 0.01 82 1014.2
20260507202225 56 307 0.0 0.0 0.00 0.04 0.01 83 1014.2
20260507201730 56 307 0.0 0.0 0.00 0.04 0.01 82 1014.0
20260507201232 56 307 0.0 0.0 0.00 0.04 0.01 81 1014.0
20260507200739 56 307 0.0 0.0 0.00 0.04 0.01 81 1014.0
20260507200309 57 307 0.0 1.7 0.00 0.04 0.01 81 1013.9
20260507195746 57 307 0.9 1.7 0.00 0.08 0.01 80 1013.8
20260507195239 57 307 1.7 1.7 0.00 0.08 0.01 80 1013.7
20260507194730 58 234 0.0 0.0 0.00 0.08 0.01 80 1013.7
20260507194319 58 234 0.0 0.0 0.00 0.08 0.01 79 1013.6
20260507193740 58 234 0.0 0.0 0.00 0.08 0.01 77 1013.4
20260507193343 59 234 0.0 0.0 0.00 0.08 0.01 76 1013.4
20260507193239 59 234 0.0 0.0 0.00 0.08 0.01 76 1013.4
20260507192734 59 234 0.0 0.0 0.00 0.08 0.01 76 1013.3
20260507192253 60 234 0.0 0.0 0.00 0.08 0.01 76 1013.3
20260507191800 60 234 0.0 0.0 0.00 0.08 0.01 75 1013.2
20260507191229 60 234 0.0 0.0 0.00 0.08 0.01 74 1013.1
20260507190723 61 234 0.0 0.0 0.00 0.08 0.01 73 1012.9
20260507190234 61 234 0.0 0.0 0.00 0.08 0.01 72 1013.0
20260507185743 62 234 0.0 0.0 0.00 1.18 0.01 71 1013.0
20260507185227 62 234 0.0 0.0 0.00 1.18 0.01 69 1013.0
20260507184739 63 233 0.0 0.0 0.00 1.18 0.01 67 1012.8
20260507184223 63 233 0.0 0.9 0.00 1.18 0.01 65 1012.8
20260507183804 64 233 0.0 2.6 0.00 1.18 0.01 63 1012.8
20260507183222 64 199 0.0 2.6 0.00 1.18 0.01 63 1012.7
20260507182735 64 202 1.7 3.5 0.00 1.18 0.01 61 1012.7
20260507182228 65 201 1.7 3.5 0.00 1.18 0.01 61 1012.7
20260507181737 65 199 1.7 5.2 0.00 1.18 0.01 59 1012.7
20260507181248 65 201 1.7 5.2 0.00 1.18 0.01 58 1012.7
20260507180746 66 200 2.6 6.1 0.00 1.18 0.01 58 1012.6
20260507180222 66 202 3.5 6.1 0.00 1.18 0.01 56 1012.5
20260507175736 66 206 0.9 5.2 0.00 1.26 0.01 56 1012.3
20260507175240 66 206 2.6 5.2 0.00 1.26 0.01 55 1012.3
20260507174729 67 205 0.9 6.1 0.00 1.26 0.01 55 1012.3
20260507174255 67 221 3.5 6.1 0.00 1.26 0.01 54 1012.2
20260507173723 67 196 2.6 5.2 0.00 1.26 0.01 52 1012.3
20260507173235 67 229 2.6 5.2 0.00 1.26 0.01 53 1012.2
20260507172748 67 188 1.7 5.2 0.00 1.26 0.01 52 1012.3
20260507172222 67 203 0.9 6.1 0.00 1.26 0.01 52 1012.2
20260507171734 67 192 3.5 6.1 0.00 1.26 0.01 51 1012.1
20260507171227 67 209 1.7 5.2 0.00 1.26 0.01 52 1012.1
20260507170736 68 224 2.6 5.2 0.00 1.26 0.01 52 1012.1
20260507170247 68 181 2.6 4.3 0.00 1.26 0.01 51 1012.2
20260507165732 68 200 1.7 5.2 0.00 1.26 0.01 51 1012.0
20260507165226 68 189 0.9 6.1 0.00 1.26 0.01 51 1012.0
20260507164732 68 193 4.3 5.2 0.00 1.26 0.01 51 1012.1
20260507164226 68 219 2.6 5.2 0.00 1.26 0.01 52 1012.0
20260507163739 68 141 0.9 6.1 0.00 1.26 0.01 50 1012.0
20260507163223 69 186 2.6 7.0 0.00 1.26 0.01 52 1012.0
20260507162735 69 199 1.7 7.0 0.00 1.26 0.01 50 1012.1
20260507162229 69 202 2.6 6.1 0.00 1.26 0.01 50 1012.0
20260507161758 70 153 2.6 6.1 0.00 1.26 0.01 48 1012.0
20260507161222 70 195 2.6 6.1 0.00 1.26 0.01 49 1012.0
20260507160732 70 227 2.6 6.1 0.00 1.26 0.01 51 1012.0
20260507160226 70 225 3.5 7.0 0.00 1.26 0.01 49 1012.0
20260507155740 70 205 2.6 6.1 0.00 1.26 0.01 50 1012.0
20260507155223 71 194 2.6 8.7 0.00 1.26 0.01 50 1012.0
20260507154736 71 219 2.6 7.0 0.00 1.26 0.01 51 1012.0
20260507154244 71 192 3.5 7.0 0.00 1.26 0.01 52 1012.1
20260507153757 71 209 2.6 5.2 0.00 1.26 0.01 51 1012.0
20260507153221 71 261 1.7 7.0 0.00 1.26 0.01 51 1012.0
20260507152733 71 184 3.5 7.8 0.00 1.26 0.01 50 1012.0
20260507152219 71 192 2.6 7.0 0.00 1.26 0.01 53 1012.0
20260507151753 71 211 3.5 7.0 0.00 1.26 0.01 52 1011.9
20260507151240 70 159 1.7 6.1 0.00 1.26 0.01 51 1012.0
20260507150720 71 103 1.7 5.2 0.00 1.26 0.01 49 1012.0
20260507150234 71 250 2.6 7.8 0.00 1.26 0.01 51 1012.0
20260507145728 71 180 4.3 7.8 0.00 3.94 0.01 50 1012.1
20260507145241 71 236 4.3 6.1 0.00 3.94 0.01 50 1012.0
20260507144725 71 167 0.9 7.8 0.00 3.94 0.01 48 1012.2
20260507144252 71 196 1.7 7.8 0.00 3.94 0.01 49 1012.1
20260507143725 71 217 1.7 7.0 0.00 3.94 0.01 51 1012.2
20260507143240 71 214 4.3 8.7 0.00 3.94 0.01 50 1012.2
20260507142748 71 215 4.3 8.7 0.00 3.94 0.01 52 1012.2
20260507142246 71 231 4.3 7.8 0.00 3.94 0.01 54 1012.3
20260507141751 71 177 2.6 4.3 0.00 3.94 0.01 53 1012.3
20260507141242 71 155 1.7 9.6 0.00 3.94 0.01 53 1012.3
20260507140730 71 185 2.6 9.6 0.00 3.94 0.01 56 1012.3
20260507140243 71 157 1.7 8.7 0.00 3.94 0.01 54 1012.3
20260507135732 71 200 3.5 7.0 0.00 1.02 0.01 55 1012.3
20260507135224 71 187 2.6 10.4 0.00 1.02 0.01 52 1012.4
20260507134732 71 186 2.6 10.4 0.00 1.02 0.01 55 1012.5
20260507134227 71 270 4.3 8.7 0.00 1.02 0.01 54 1012.5
20260507133759 70 217 5.2 10.4 0.00 1.02 0.01 54 1012.6
20260507133220 70 191 5.2 13.0 0.00 1.02 0.01 53 1012.6
20260507132732 70 190 3.5 13.0 0.00 1.02 0.01 55 1012.6
20260507132245 70 234 5.2 7.8 0.00 1.02 0.01 54 1012.7
20260507131737 70 249 2.6 8.7 0.00 1.02 0.01 53 1012.7
20260507131247 70 250 5.2 8.7 0.00 1.02 0.01 56 1012.8
20260507130729 70 166 2.6 8.7 0.00 1.02 0.01 51 1012.8
20260507130222 70 171 4.3 8.7 0.00 1.02 0.01 55 1012.8
20260507125736 69 294 4.3 8.7 0.00 1.04 0.01 58 1012.8
20260507125247 69 187 3.5 7.8 0.00 1.04 0.01 59 1012.8
20260507124758 69 355 1.7 8.7 0.00 1.04 0.01 55 1012.9
20260507124241 69 229 6.1 8.7 0.00 1.04 0.01 54 1012.9
20260507123730 69 215 2.6 6.1 0.00 1.04 0.01 58 1012.9
20260507123244 68 204 3.5 7.0 0.00 1.04 0.01 57 1012.9
20260507122732 68 281 1.7 7.8 0.00 1.04 0.01 55 1012.9
20260507122245 68 242 3.5 7.8 0.00 1.04 0.01 59 1013.0
20260507121728 68 253 4.3 7.8 0.00 1.04 0.01 56 1012.9
20260507121311 68 259 2.6 9.6 0.00 1.04 0.01 58 1012.9
20260507120758 68 194 3.5 9.6 0.00 1.04 0.01 57 1013.0
20260507120226 68 213 4.3 11.3 0.00 1.04 0.01 55 1013.0
20260507115721 68 208 5.2 7.8 0.00 1.04 0.01 59 1013.0
20260507115223 67 217 0.9 8.7 0.00 1.04 0.01 58 1013.0
20260507114803 67 275 5.2 9.6 0.00 1.04 0.01 59 1013.1
20260507114244 67 232 6.1 9.6 0.00 1.04 0.01 61 1013.1
20260507113733 67 235 2.6 8.7 0.00 1.04 0.01 61 1013.2
20260507113220 68 219 2.6 8.7 0.00 1.04 0.01 63 1013.2
20260507112734 68 177 3.5 7.8 0.00 1.04 0.01 65 1013.2
20260507112307 67 205 4.3 7.8 0.00 1.04 0.01 64 1013.3
20260507111736 67 232 2.6 9.6 0.00 1.04 0.01 63 1013.3
20260507111221 67 197 3.5 9.6 0.00 1.04 0.01 63 1013.4
20260507110729 67 162 1.7 7.0 0.00 1.04 0.01 60 1013.4
20260507110235 66 192 4.3 7.0 0.00 1.04 0.01 66 1013.5
20260507105746 66 92 1.7 6.1 0.00 1.04 0.01 66 1013.6
20260507105223 66 138 2.6 6.1 0.00 1.04 0.01 64 1013.6
20260507104735 66 221 2.6 7.8 0.00 1.04 0.01 68 1013.7
20260507104220 65 198 3.5 7.8 0.00 1.04 0.01 65 1013.7
20260507103753 65 191 2.6 7.8 0.00 1.04 0.01 68 1013.7
20260507103314 65 94 2.6 5.2 0.00 1.04 0.01 66 1013.7
20260507102747 65 107 0.9 5.2 0.00 1.04 0.01 67 1013.8
20260507102230 65 207 2.6 4.3 0.00 1.04 0.01 67 1013.8
20260507101739 65 140 0.0 6.1 0.00 1.04 0.01 66 1013.9
20260507101251 65 219 3.5 7.0 0.00 1.04 0.01 66 1013.9
20260507100800 66 203 2.6 7.8 0.00 1.04 0.01 65 1014.0
20260507100222 65 221 4.3 7.8 0.00 1.04 0.01 67 1014.0
20260507095736 65 228 3.5 7.0 0.00 1.04 0.01 68 1013.9
20260507095230 65 261 1.7 4.3 0.00 1.04 0.01 71 1014.0
20260507094744 65 176 2.6 4.3 0.00 1.04 0.01 67 1013.9
20260507094228 64 155 0.9 3.5 0.00 1.04 0.01 69 1013.9
20260507093741 64 63 2.6 4.3 0.00 1.04 0.01 68 1013.9
20260507093234 64 143 1.7 6.1 0.00 1.04 0.01 69 1014.0
20260507092719 63 206 4.3 7.0 0.00 1.04 0.01 69 1013.9
20260507092233 63 223 1.7 7.0 0.00 1.04 0.01 70 1013.9
20260507091727 63 223 2.6 6.1 0.00 1.04 0.01 71 1013.9
20260507091227 62 236 1.7 5.2 0.00 1.04 0.01 72 1013.8
20260507090737 62 69 1.7 2.6 0.00 1.04 0.01 70 1013.8
20260507090251 62 248 1.7 3.5 0.00 1.04 0.01 72 1013.9
20260507085741 62 222 1.7 3.5 0.00 1.12 0.01 72 1013.9
20260507085249 61 219 1.7 3.5 0.00 1.12 0.01 71 1013.9
20260507084741 61 117 0.9 2.6 0.00 1.12 0.01 71 1013.8
20260507084247 60 123 0.9 3.5 0.00 1.12 0.01 72 1013.8
20260507083730 60 119 1.7 3.5 0.00 1.12 0.01 75 1013.9
20260507083223 60 111 0.0 2.6 0.00 1.12 0.01 76 1013.8
20260507082727 60 116 1.7 2.6 0.00 1.12 0.01 78 1013.8
20260507082240 59 109 1.7 2.6 0.00 1.12 0.01 78 1013.8
20260507081751 59 30 0.9 3.5 0.00 1.12 0.01 79 1013.8
20260507081222 59 46 1.7 3.5 0.00 1.12 0.01 77 1013.7
20260507080751 59 12 0.9 3.5 0.00 1.12 0.01 79 1013.7
20260507080222 59 355 2.6 4.3 0.00 1.12 0.01 78 1013.7
20260507075732 59 306 2.6 4.3 0.00 1.15 0.01 78 1013.7
20260507075225 59 12 2.6 5.2 0.00 1.15 0.01 81 1013.5
20260507074727 58 332 2.6 5.2 0.00 1.15 0.01 82 1013.3
20260507074251 57 30 2.6 5.2 0.00 1.15 0.01 82 1013.3
20260507073722 57 18 3.5 6.1 0.00 1.15 0.01 80 1013.4
20260507073256 57 10 3.5 5.2 0.00 1.15 0.01 82 1013.4
20260507072748 57 32 3.5 7.0 0.00 1.15 0.01 82 1013.5
20260507072238 57 338 1.7 7.0 0.00 1.15 0.01 82 1013.4
20260507071731 57 5 2.6 5.2 0.00 1.15 0.01 82 1013.3
20260507071244 56 348 2.6 5.2 0.00 1.15 0.01 84 1013.3
20260507070732 56 336 2.6 7.0 0.00 1.15 0.01 85 1013.4
20260507070306 55 355 4.3 7.0 0.00 1.15 0.01 85 1013.4
20260507065729 55 16 2.6 7.0 0.00 1.15 0.01 85 1013.3
20260507065222 55 25 4.3 7.0 0.00 1.15 0.01 85 1013.2
20260507064734 55 5 3.5 6.1 0.00 1.15 0.01 85 1013.2
20260507064238 54 342 3.5 8.7 0.00 1.15 0.01 85 1013.2
20260507063732 54 360 3.5 8.7 0.00 1.15 0.01 85 1013.2
20260507063246 54 355 4.3 7.8 0.00 1.15 0.01 86 1013.1
20260507062731 54 15 3.5 7.0 0.00 1.15 0.01 88 1013.0
20260507062225 54 339 2.6 7.8 0.00 1.15 0.01 87 1012.9
20260507061731 54 331 4.3 7.8 0.00 1.15 0.01 88 1012.9
20260507061239 53 17 3.5 7.8 0.00 1.15 0.01 88 1012.9
20260507060748 53 332 3.5 7.0 0.00 1.15 0.01 88 1013.0
20260507060240 53 39 2.6 5.2 0.00 1.15 0.01 89 1012.9
20260507055723 53 338 2.6 5.2 0.00 1.16 0.01 90 1012.7
20260507055237 53 346 2.6 7.0 0.00 1.16 0.01 91 1012.7
20260507054729 52 18 2.6 4.3 0.00 1.16 0.01 92 1012.7
20260507054242 52 325 3.5 4.3 0.00 1.16 0.01 93 1012.7
20260507053726 52 342 1.7 3.5 0.00 1.16 0.01 92 1012.7
20260507053258 51 336 2.6 3.5 0.00 1.16 0.01 92 1012.6
20260507052720 51 355 1.7 4.3 0.00 1.16 0.01 93 1012.5
20260507052253 51 40 1.7 4.3 0.00 1.16 0.01 94 1012.4
20260507051724 51 355 0.9 4.3 0.00 1.16 0.01 93 1012.5
20260507051234 50 317 1.7 4.3 0.00 1.16 0.01 93 1012.5
20260507050744 50 343 1.7 4.3 0.00 1.16 0.01 93 1012.5
20260507050226 50 324 2.6 3.5 0.00 1.16 0.01 93 1012.3
20260507045738 50 346 0.9 1.7 0.00 1.18 0.01 93 1012.3
20260507045223 50 346 0.9 2.6 0.00 1.18 0.01 92 1012.2
20260507044742 50 355 0.9 2.6 0.04 1.18 0.01 92 1012.2
20260507044221 50 39 0.9 3.5 0.04 1.18 0.01 92 1012.2
20260507043734 50 42 0.9 3.5 0.04 1.18 0.01 92 1012.0
20260507043220 50 21 0.9 2.6 0.04 1.18 0.01 92 1012.1
20260507042733 50 34 1.7 2.6 0.04 1.18 0.01 92 1012.0
20260507042226 50 32 1.7 2.6 0.04 1.18 0.01 92 1012.0
20260507041739 50 40 0.9 2.6 0.04 1.18 0.01 92 1011.9
20260507041224 51 346 0.9 1.7 0.04 1.18 0.01 92 1011.9
20260507040732 51 346 0.9 2.6 0.04 1.18 0.01 91 1012.0
20260507040226 51 346 1.7 2.6 0.04 1.18 0.01 91 1012.0
20260507035730 51 59 0.9 1.7 0.04 1.19 0.01 91 1011.8
20260507035224 51 95 0.0 1.7 0.04 1.19 0.01 90 1011.9
20260507034738 51 95 0.0 2.6 0.00 1.19 0.00 90 1011.8
20260507034251 51 93 0.9 3.5 0.00 1.19 0.00 90 1011.8
20260507033733 51 31 1.7 7.0 0.00 1.19 0.00 89 1011.8
20260507033222 51 10 3.5 7.0 0.00 1.19 0.00 89 1011.7
20260507032734 51 355 3.5 5.2 0.00 1.19 0.00 89 1011.8
20260507032224 51 355 3.5 5.2 0.00 1.19 0.00 89 1011.8
20260507031737 51 9 3.5 5.2 0.00 1.19 0.00 88 1011.7
20260507031229 51 360 1.7 5.2 0.00 1.19 0.00 88 1011.8
20260507030737 51 355 2.6 5.2 0.00 1.19 0.00 88 1011.8
20260507030221 51 9 2.6 5.2 0.00 1.19 0.00 88 1011.8
20260507025734 51 27 2.6 7.0 0.00 1.20 0.00 88 1011.8
20260507025248 51 5 3.5 7.0 0.00 1.20 0.00 88 1011.8
20260507024739 51 5 3.5 7.0 0.00 1.20 0.00 88 1011.8
20260507024248 51 355 3.5 8.7 0.00 1.20 0.00 88 1011.8
20260507023732 51 22 5.2 8.7 0.00 1.20 0.00 88 1011.7
20260507023223 51 5 4.3 8.7 0.00 1.20 0.00 88 1011.8
20260507022735 51 9 5.2 8.7 0.00 1.20 0.00 89 1011.8
20260507022228 51 15 5.2 8.7 0.00 1.20 0.00 90 1011.8
20260507021724 51 348 4.3 8.7 0.00 1.20 0.00 91 1011.8
20260507021238 51 355 4.3 9.6 0.00 1.20 0.00 91 1011.8
20260507020727 51 42 4.3 9.6 0.00 1.20 0.00 92 1011.8
20260507020240 51 19 5.2 8.7 0.00 1.20 0.00 92 1011.8
20260507015739 51 343 4.3 10.4 0.00 1.22 0.00 92 1011.9
20260507015222 51 5 5.2 10.4 0.00 1.22 0.00 92 1011.8
20260507014734 51 5 3.5 7.0 0.00 1.22 0.00 92 1011.8
20260507014227 51 42 2.6 5.2 0.00 1.22 0.00 92 1011.7
20260507013730 51 10 3.5 6.1 0.00 1.22 0.00 92 1011.7
20260507013224 51 348 3.5 7.0 0.00 1.22 0.00 92 1011.7
20260507012738 51 5 3.5 7.0 0.00 1.22 0.00 92 1011.8
20260507012224 51 5 2.6 4.3 0.00 1.22 0.00 92 1011.7
20260507011735 51 5 2.6 6.1 0.00 1.22 0.00 92 1011.7
20260507011227 51 22 3.5 6.1 0.00 1.22 0.00 92 1011.7
20260507010735 51 355 1.7 5.2 0.00 1.22 0.00 92 1011.7
20260507010249 51 29 2.6 5.2 0.00 1.22 0.00 92 1011.6
20260507005801 51 22 2.6 5.2 0.00 1.23 0.00 92 1011.7
20260507005231 51 16 1.7 4.3 0.00 1.23 0.00 93 1011.6
20260507004734 51 14 0.0 3.5 0.00 1.23 0.00 93 1011.5
20260507004227 51 9 0.9 3.5 0.00 1.23 0.00 93 1011.5
20260507003801 51 336 1.7 2.6 0.00 1.23 0.00 93 1011.3
20260507003230 51 331 0.9 2.6 0.00 1.23 0.00 93 1011.4
20260507002727 51 331 0.9 2.6 0.00 1.23 0.00 93 1011.4
20260507002221 51 355 1.7 3.5 0.00 1.23 0.00 93 1011.3
20260507001734 51 360 1.7 3.5 0.00 1.23 0.00 93 1011.3
20260507001247 51 16 2.6 3.5 0.00 1.23 0.00 94 1011.3
20260507000757 51 36 2.6 5.2 0.00 1.23 0.00 94 1011.4
20260507000221 51 355 2.6 5.2 0.00 1.23 0.00 94 1011.4
20260506235734 50 332 2.6 4.3 0.00 1.23 0.00 94 1011.5
20260506235241 50 360 2.6 7.0 0.00 1.23 0.00 94 1011.4
20260506234724 50 9 3.5 7.0 0.00 1.23 0.00 95 1011.4
20260506234235 50 11 2.6 7.8 0.00 1.23 0.00 95 1011.4
20260506233729 50 26 3.5 7.8 0.00 1.23 0.00 95 1011.5
20260506233233 50 334 3.5 8.7 0.00 1.23 0.00 96 1011.4
20260506232726 50 360 4.3 8.7 0.00 1.23 0.00 96 1011.5
20260506232231 50 340 4.3 8.7 0.00 1.23 0.00 96 1011.4
20260506231729 50 355 3.5 8.7 0.00 1.23 0.00 96 1011.4
20260506231222 50 355 4.3 10.4 0.00 1.23 0.00 96 1011.4
20260506230732 50 355 5.2 10.4 0.00 1.23 0.00 96 1011.3
20260506230246 50 5 5.2 9.6 0.00 1.23 0.00 96 1011.4
20260506225731 50 355 3.5 7.8 0.00 1.23 0.00 96 1011.4
20260506225225 50 329 2.6 7.0 0.00 1.23 0.00 96 1011.3
20260506224739 50 13 3.5 6.1 0.00 1.23 0.00 96 1011.4
20260506224224 50 360 2.6 7.0 0.00 1.23 0.00 96 1011.2